Location: ??????
(38.1303°N, 24.0039°E)
Time: 18:24:37
(UTC+00:00)

Resurs 1-4 Rocket - Pass Details

Date: 20 June 2021
Orbit: 800 x 813 km, 98.6° (Epoch: 26 July)

Event Time Altitude Azimuth Distance (km) Brightness Sun altitude
Rises 01:15:28 0° 356° (N) 3,340 6.0 -16.7°
Reaches altitude 10° 01:18:30 10° 338° (NNW) 2,406 4.9 -16.3°
Maximum altitude 01:21:59 18° 297° (WNW) 1,897 3.9 -15.8°
Enters shadow 01:24:23 14° 265° (W) 2,150 3.9 -15.5°
